Change the Weather History Date:

Sunday, May 11, 2014

  Actual Average Record
Temperature  
Mean Temperature 54 °F -  
Max Temperature 66 °F 59 °F 82 °F (1961)
Min Temperature 43 °F 40 °F 27 °F (1963)
Degree Days  
Heating Degree Days 12    
Growing Degree Days 4 (Base 50)    
Moisture  
Dew Point 34 °F    
Average Humidity 49    
Maximum Humidity 68    
Minimum Humidity 28    
Precipitation  
Precipitation 0.00 in - - ()
Sea Level Pressure  
Sea Level Pressure 29.96 in    
Wind  
Wind Speed 5 mph (East)    
Max Wind Speed 12 mph    
Max Gust Speed 18 mph    
Visibility 10 miles    
Events      
Averages and records for this station are not official NWS values.
T = Trace of Precipitation, MM = Missing Value Source: NWS Daily Summary

Daily Weather History Graph

Daily Weather History Graph

Search for Another Location

Airport or City:

Trip Planner

Search our weather history database for the weather conditions in past years. The results will help you decide how hot, cold, wet, or windy it might be!

Date:

Astronomy

May. 11, 2014 Rise Set
Actual Time 6:23 AM EDT 9:18 PM EDT
Civil Twilight 5:47 AM EDT 9:54 PM EDT
Nautical Twilight 5:02 AM EDT 10:39 PM EDT
Astronomical Twilight 4:07 AM EDT 11:35 PM EDT
Moon 6:01 PM EDT (5/11) 4:42 AM EDT (5/11)
Length of Visible Light 16h 06m
Length of Day
14h 55m
Waxing Gibbous, 89% of the Moon is Illuminated
May 11
Waxing Gibbous
May 14
Full
May 21
Last Quarter
May 28
New
Jun 5
First Quarter

Hourly Weather History & Observations

Time (EDT) Temp. Windchill Dew Point Humidity Pressure Visibility Wind Dir Wind Speed Gust Speed Precip Events Conditions
12:53 AM 54.0 °F - 21.0 °F 28% 29.90 in 10.0 mi NW 4.6 mph - N/A   Clear
1:53 AM 51.8 °F - 24.8 °F 35% 29.89 in 10.0 mi West 3.5 mph - N/A   Clear
2:53 AM 50.0 °F - 26.1 °F 39% 29.90 in 10.0 mi Calm Calm - N/A   Clear
3:53 AM 46.0 °F - 25.0 °F 44% 29.89 in 10.0 mi Calm Calm - N/A   Clear
4:53 AM 48.0 °F - 25.0 °F 41% 29.90 in 10.0 mi Calm Calm - N/A   Clear
5:53 AM 44.1 °F 40.1 °F 28.9 °F 55% 29.91 in 10.0 mi WSW 6.9 mph - N/A   Clear
6:53 AM 43.0 °F 41.3 °F 33.1 °F 68% 29.91 in 10.0 mi WSW 3.5 mph - N/A   Clear
7:53 AM 51.1 °F - 39.0 °F 63% 29.93 in 10.0 mi Calm Calm - N/A   Scattered Clouds
8:53 AM 57.0 °F - 39.9 °F 53% 29.96 in 10.0 mi NNW 9.2 mph - N/A   Mostly Cloudy
9:53 AM 55.9 °F - 39.0 °F 53% 29.98 in 10.0 mi NW 6.9 mph - N/A   Overcast
10:53 AM 57.9 °F - 42.1 °F 56% 29.96 in 10.0 mi Calm Calm - N/A   Mostly Cloudy
11:53 AM 63.0 °F - 45.0 °F 52% 29.98 in 10.0 mi SE 8.1 mph - N/A   Partly Cloudy
12:53 PM 64.9 °F - 44.1 °F 47% 29.96 in 10.0 mi SE 6.9 mph - N/A   Clear
1:53 PM 64.9 °F - 45.0 °F 48% 29.96 in 10.0 mi ESE 8.1 mph - N/A   Clear
2:53 PM 63.0 °F - 41.0 °F 45% 29.97 in 10.0 mi East 8.1 mph - N/A   Clear
3:53 PM 59.0 °F - 35.1 °F 41% 29.98 in 10.0 mi East 11.5 mph - N/A   Clear
4:53 PM 57.2 °F - 33.8 °F 41% 29.98 in 10.0 mi ESE 11.5 mph - N/A   Clear
5:53 PM 55.9 °F - 32.0 °F 40% 29.99 in 10.0 mi East 10.4 mph 18.4 mph N/A   Clear
6:53 PM 53.1 °F - 30.0 °F 41% 30.01 in 10.0 mi East 11.5 mph - N/A   Clear
7:53 PM 51.1 °F - 30.0 °F 44% 30.00 in 10.0 mi East 9.2 mph - N/A   Clear
8:53 PM 48.0 °F - 30.9 °F 52% 30.00 in 10.0 mi ESE 9.2 mph - N/A   Clear
9:53 PM 44.1 °F 40.8 °F 32.0 °F 63% 30.01 in 10.0 mi East 5.8 mph - N/A   Scattered Clouds
10:53 PM 45.0 °F 40.6 °F 30.9 °F 58% 30.01 in 10.0 mi East 8.1 mph - N/A   Scattered Clouds
11:53 PM 45.0 °F 40.1 °F 30.9 °F 58% 30.00 in 10.0 mi East 9.2 mph - N/A   Clear